Location: Blacksburg
(37.2290°N, 80.4140°W)
Time: 22:04:09
(UTC-04:00)

ISS - Visible Passes

Search period start: 01 July 2022 00:00
Search period end: 11 July 2022 00:00
Orbit: 414 x 420 km, 51.6° (Epoch: 01 July)

Date Brightness Start Highest point End Pass type
(mag) Time Alt. Az. Time Alt. Az. Time Alt. Az.
01 Jul -2.6 03:33:44 38° NNW 03:33:44 38° NNW 03:36:39 10° NE visible
01 Jul -0.8 05:10:30 10° NNW 05:10:59 10° NNW 05:11:27 10° N visible
02 Jul -1.4 02:47:10 23° NE 02:47:10 23° NE 02:48:35 10° NE visible
02 Jul -1.0 04:20:48 10° NW 04:22:31 13° NNW 04:24:14 10° N visible
03 Jul -1.4 03:33:26 17° NW 03:34:07 18° NNW 03:36:30 10° NNE visible
04 Jul -1.3 02:46:45 22° N 02:46:45 22° N 02:48:37 10° NNE visible
05 Jul -0.6 02:00:01 14° NNE 02:00:01 14° NNE 02:00:38 10° NE visible
05 Jul -0.6 03:34:15 10° NNW 03:34:55 10° NNW 03:35:35 10° N visible
06 Jul -0.8 02:46:06 13° NNW 02:46:25 14° NNW 02:48:12 10° N visible
07 Jul -0.6 01:59:15 15° N 01:59:15 15° N 02:00:25 10° NNE visible
08 Jul -0.4 01:12:16 11° NNE 01:12:16 11° NNE 01:12:28 10° NNE visible
09 Jul -0.4 01:58:01 10° NNW 01:58:39 11° NNW 01:59:30 10° N visible
09 Jul -0.6 05:12:42 10° NNW 05:14:46 15° NNE 05:16:50 10° ENE visible
10 Jul -0.5 01:10:38 14° NNW 01:10:38 14° NNW 01:11:59 10° NNE visible
10 Jul -0.3 04:25:02 10° N 04:26:14 11° NNE 04:27:26 10° NE visible
